{"data":{"norad_id":53017,"epoch":"2026-05-25T06:00:02.000160Z","epoch_age_seconds":63503,"freshness":"FRESH","line1":"1 53017U 22076AH  26145.25002315  .00729495  00000+0  17380-1 0  9994","line2":"2 53017  53.2144  94.7465 0001655  69.8296 302.9981 15.38594388  5897","mean_motion":15.38594388,"eccentricity":0.0001655,"inclination_deg":53.2144,"raan_deg":94.7465,"arg_perigee_deg":69.8296,"mean_anomaly_deg":302.9981,"bstar":0.01738,"rev_number":589,"period_min":93.591918131967,"perigee_km":449.13486438959,"apogee_km":451.39506543997,"semimajor_km":6828.4019649148,"source":"CELESTRAK","updated_at":"2026-05-25T13:38:17.280269Z"}}